^^
Refsnesbakken Borettslag Station Historical Data
 
Daily Summary for May 10, 2026 Units:  Metric    English   Both
Daily Weekly Monthly Yearly
  Current: High: Low: Average:
Temperature: 9.2 °C 12.5 °C 4.8 °C 8.3 °C
Dew Point: 4.8 °C 7.3 °C 3.8 °C 5.2 °C
Humidity: 74% 93.8% 59.3% 81%
Wind Speed: 22.2km/h 22.2km/h 5.6km/h 10.9km/h
Wind Gust: 22.5km/h 22.5km/h - -
WindSSW - - SW
Pressure: 1008.9 hPa 1020.6 hPa 1008.9 hPa -
Precipitation: 4.2 mm      
 
 
Tabular Data for May 10, 2026
Time Temperature Dew Point Pressure Wind Wind Speed Wind Gust Humidity Rainfall Rate (Hourly) solar
00:09 8.9 °C 4.6 °C 1020.6 hPa South 5.6 km/h 5.6 km/h 74.2% 0.0 mm 0 W/m2
00:14 8.9 °C 4.6 °C 1020.6 hPa South 5.6 km/h 5.6 km/h 74% 0.0 mm 0 W/m2
00:19 8.9 °C 4.6 °C 1020.6 hPa South 5.6 km/h 5.6 km/h 74.1% 0.0 mm 0 W/m2
00:24 8.9 °C 4.7 °C 1020.6 hPa South 5.6 km/h 5.6 km/h 74.8% 0.0 mm 0 W/m2
00:29 8.9 °C 4.7 °C 1020.6 hPa South 5.6 km/h 5.6 km/h 75% 0.0 mm 0 W/m2
00:34 8.8 °C 4.7 °C 1020.5 hPa SE 5.6 km/h 5.6 km/h 75% 0.0 mm 0 W/m2
00:39 8.8 °C 4.7 °C 1020.4 hPa SE 5.6 km/h 5.6 km/h 75% 0.0 mm 0 W/m2
00:44 8.8 °C 4.7 °C 1020.3 hPa SE 5.6 km/h 5.6 km/h 75% 0.0 mm 0 W/m2
00:49 8.8 °C 4.7 °C 1020.3 hPa SE 5.6 km/h 5.6 km/h 75.6% 0.0 mm 0 W/m2
00:54 8.8 °C 4.8 °C 1020.2 hPa SE 5.6 km/h 5.6 km/h 76% 0.0 mm 0 W/m2
00:59 8.8 °C 4.8 °C 1020.2 hPa SE 5.6 km/h 5.6 km/h 76% 0.0 mm 0 W/m2
01:04 8.7 °C 4.7 °C 1020.1 hPa SE 5.6 km/h 5.6 km/h 76% 0.0 mm 0 W/m2
01:09 8.7 °C 4.7 °C 1020.1 hPa SE 5.6 km/h 5.6 km/h 76.2% 0.0 mm 0 W/m2
01:14 8.7 °C 4.8 °C 1020.0 hPa SE 5.6 km/h 5.6 km/h 77% 0.0 mm 0 W/m2
01:19 8.7 °C 4.8 °C 1019.9 hPa SE 5.6 km/h 5.6 km/h 77% 0.0 mm 0 W/m2
01:24 8.7 °C 4.8 °C 1019.9 hPa SE 5.6 km/h 5.6 km/h 77% 0.0 mm 0 W/m2
01:29 8.6 °C 4.8 °C 1019.8 hPa SE 5.6 km/h 5.6 km/h 77% 0.0 mm 0 W/m2
01:34 8.6 °C 4.8 °C 1019.7 hPa SE 7 km/h 7.4 km/h 77.2% 0.0 mm 0 W/m2
01:39 8.6 °C 5 °C 1019.7 hPa SSE 7.4 km/h 8 km/h 78% 0.0 mm 0 W/m2
01:44 8.6 °C 5 °C 1019.7 hPa SSE 7.4 km/h 8 km/h 78% 0.0 mm 0 W/m2
01:49 8.6 °C 5 °C 1019.7 hPa SSE 7.4 km/h 8 km/h 78% 0.0 mm 0 W/m2
01:54 8.7 °C 5.1 °C 1019.7 hPa SSE 7.4 km/h 8 km/h 78% 0.0 mm 0 W/m2
01:59 8.7 °C 5.1 °C 1019.7 hPa SSE 7.4 km/h 8 km/h 78% 0.0 mm 0 W/m2
02:04 8.7 °C 5.1 °C 1019.7 hPa South 7.4 km/h 8 km/h 78% 0.0 mm 0 W/m2
02:09 8.8 °C 5.2 °C 1019.6 hPa SSW 7.4 km/h 8 km/h 78% 0.0 mm 0 W/m2
02:14 8.8 °C 5.3 °C 1019.6 hPa SSW 7.4 km/h 8 km/h 78.5% 0.0 mm 0 W/m2
02:19 8.8 °C 5.3 °C 1019.5 hPa SSW 7.4 km/h 8 km/h 79% 0.0 mm 0 W/m2
02:24 8.8 °C 5.3 °C 1019.5 hPa SSW 7.4 km/h 8 km/h 79% 0.0 mm 0 W/m2
02:29 8.8 °C 5.3 °C 1019.5 hPa SSW 7.4 km/h 8 km/h 79% 0.0 mm 0 W/m2
02:34 8.7 °C 5.3 °C 1019.3 hPa South 6.7 km/h 8 km/h 79% 0.0 mm 0 W/m2
02:39 8.7 °C 5.3 °C 1019.2 hPa South 5.6 km/h 8 km/h 79% 0.0 mm 0 W/m2
02:44 8.6 °C 5.2 °C 1019.1 hPa South 5.6 km/h 5.6 km/h 79% 0.0 mm 0 W/m2
02:49 8.5 °C 5.1 °C 1019.1 hPa South 5.6 km/h 5.6 km/h 79% 0.0 mm 0 W/m2
02:54 8.5 °C 5 °C 1019.0 hPa South 5.6 km/h 5.6 km/h 79% 0.0 mm 0 W/m2
02:59 8.4 °C 5 °C 1019.0 hPa South 5.6 km/h 5.6 km/h 79.5% 0.0 mm 0 W/m2
03:04 8.3 °C 5 °C 1018.9 hPa SW 5.6 km/h 5.6 km/h 79.7% 0.0 mm 0 W/m2
03:09 8.2 °C 4.8 °C 1018.9 hPa WSW 5.6 km/h 5.6 km/h 79.4% 0.0 mm 0 W/m2
03:14 8.1 °C 4.9 °C 1018.9 hPa WSW 5.6 km/h 5.6 km/h 80% 0.0 mm 0 W/m2
03:19 8 °C 4.8 °C 1018.9 hPa WSW 5.6 km/h 5.6 km/h 80% 0.0 mm 0 W/m2
03:24 8 °C 4.9 °C 1018.8 hPa WSW 5.6 km/h 5.6 km/h 80.7% 0.0 mm 0 W/m2
03:29 7.9 °C 4.9 °C 1018.8 hPa WSW 5.6 km/h 5.6 km/h 81.3% 0.0 mm 0 W/m2
03:34 7.9 °C 5 °C 1018.7 hPa WSW 5.6 km/h 5.6 km/h 82% 0.0 mm 0 W/m2
03:39 7.9 °C 5.2 °C 1018.6 hPa WSW 5.6 km/h 5.6 km/h 83% 0.0 mm 0 W/m2
03:44 7.8 °C 5.1 °C 1018.6 hPa WSW 5.6 km/h 5.6 km/h 83% 0.0 mm 0 W/m2
03:49 7.8 °C 5.1 °C 1018.6 hPa WSW 5.6 km/h 5.6 km/h 82.8% 0.0 mm 0 W/m2
03:54 7.8 °C 4.9 °C 1018.5 hPa WSW 5.6 km/h 5.6 km/h 82% 0.0 mm 0 W/m2
03:59 7.8 °C 5 °C 1018.4 hPa WSW 5.6 km/h 5.6 km/h 82.2% 0.0 mm 0 W/m2
04:04 7.8 °C 5.1 °C 1018.4 hPa WSW 5.6 km/h 5.6 km/h 83% 0.0 mm 0 W/m2
04:09 7.8 °C 5.1 °C 1018.6 hPa WSW 5.6 km/h 5.6 km/h 83% 0.0 mm 0 W/m2
04:14 7.8 °C 5 °C 1018.3 hPa WSW 5.6 km/h 5.6 km/h 82.7% 0.0 mm 0 W/m2
04:19 7.8 °C 5 °C 1018.2 hPa WSW 5.6 km/h 5.6 km/h 82.2% 0.0 mm 0 W/m2
04:24 7.8 °C 5 °C 1018.2 hPa WSW 5.6 km/h 5.6 km/h 82.4% 0.0 mm 0 W/m2
04:29 7.8 °C 5 °C 1018.2 hPa WSW 5.6 km/h 5.6 km/h 83% 0.0 mm 0 W/m2
04:34 7.8 °C 5.2 °C 1018.3 hPa NW 5.6 km/h 5.6 km/h 83.7% 0.0 mm 0 W/m2
04:39 7.8 °C 5.3 °C 1018.3 hPa NNW 5.6 km/h 5.6 km/h 84.5% 0.0 mm 0 W/m2
04:44 7.7 °C 5.4 °C 1018.3 hPa NNW 5.6 km/h 5.6 km/h 85.1% 0.0 mm 0 W/m2
04:49 7.6 °C 5.4 °C 1018.2 hPa NNW 5.6 km/h 5.6 km/h 86.1% 0.2 mm 0 W/m2
04:54 7.4 °C 5.4 °C 1018.1 hPa NNW 5.6 km/h 5.6 km/h 87.1% 0.4 mm 0 W/m2
04:59 7.3 °C 5.5 °C 1018.1 hPa NNW 5.6 km/h 5.6 km/h 88% 0.6 mm 0 W/m2
05:04 7.2 °C 5.5 °C 1018.1 hPa NNW 5.6 km/h 5.6 km/h 88.9% 0.6 mm 0 W/m2
05:09 7.1 °C 5.4 °C 1018.0 hPa North 5.6 km/h 5.6 km/h 89% 0.8 mm 0 W/m2
05:14 7 °C 5.4 °C 1017.9 hPa North 5.6 km/h 5.6 km/h 89.5% 0.8 mm 0 W/m2
05:19 6.9 °C 5.4 °C 1017.9 hPa North 5.6 km/h 5.6 km/h 90% 1.0 mm 0 W/m2
05:24 6.9 °C 5.4 °C 1017.9 hPa North 5.6 km/h 5.6 km/h 90% 1.0 mm 0 W/m2
05:29 6.8 °C 5.3 °C 1017.7 hPa North 5.6 km/h 5.6 km/h 90.2% 1.0 mm 5 W/m2
05:34 6.8 °C 5.4 °C 1017.6 hPa North 9.9 km/h 11.1 km/h 91% 1.0 mm 5 W/m2
05:39 6.7 °C 5.3 °C 1017.6 hPa North 11.1 km/h 11.3 km/h 91% 1.2 mm 5 W/m2
05:44 6.7 °C 5.3 °C 1017.7 hPa North 11.1 km/h 11.3 km/h 91% 1.2 mm 5 W/m2
05:49 6.7 °C 5.4 °C 1017.7 hPa North 11.1 km/h 11.3 km/h 91.1% 1.0 mm 7 W/m2
05:54 6.7 °C 5.5 °C 1017.7 hPa North 11.1 km/h 11.3 km/h 92% 1.0 mm 9 W/m2
05:59 6.7 °C 5.5 °C 1017.6 hPa North 11.1 km/h 11.3 km/h 92% 0.8 mm 7 W/m2
06:04 6.8 °C 5.5 °C 1017.7 hPa North 8.9 km/h 11.3 km/h 92% 0.6 mm 9 W/m2
06:09 6.7 °C 5.5 °C 1017.5 hPa North 5.6 km/h 11.3 km/h 92% 0.8 mm 12 W/m2
06:14 6.6 °C 5.4 °C 1017.5 hPa North 5.6 km/h 5.6 km/h 92% 0.6 mm 18 W/m2
06:19 6.5 °C 5.3 °C 1017.4 hPa North 5.6 km/h 5.6 km/h 92% 0.6 mm 25 W/m2
06:24 6.4 °C 5.2 °C 1017.4 hPa North 5.6 km/h 5.6 km/h 92% 0.4 mm 37 W/m2
06:29 6.3 °C 5.1 °C 1017.4 hPa North 5.6 km/h 5.6 km/h 92% 0.4 mm 51 W/m2
06:34 6.3 °C 5.1 °C 1017.3 hPa North 5.6 km/h 5.6 km/h 92% 0.4 mm 47 W/m2
06:39 6.3 °C 5.2 °C 1017.2 hPa North 5.6 km/h 5.6 km/h 92.3% 0.4 mm 26 W/m2
06:44 6.3 °C 5.2 °C 1017.2 hPa North 5.6 km/h 5.6 km/h 92.7% 0.4 mm 47 W/m2
06:49 6.3 °C 5.1 °C 1017.1 hPa North 5.6 km/h 5.6 km/h 92.3% 0.4 mm 53 W/m2
06:54 6.3 °C 5 °C 1017.1 hPa North 5.6 km/h 5.6 km/h 92% 0.4 mm 49 W/m2
06:59 6.3 °C 5.1 °C 1017.1 hPa North 5.6 km/h 5.6 km/h 92.5% 0.4 mm 47 W/m2
07:04 6.2 °C 5.1 °C 1017.1 hPa North 11.5 km/h 13 km/h 92.6% 0.4 mm 47 W/m2
07:09 6.3 °C 5.2 °C 1017.0 hPa North 13 km/h 13 km/h 92.9% 0.6 mm 44 W/m2
07:14 6.2 °C 5 °C 1017.0 hPa North 13 km/h 13 km/h 92.1% 0.4 mm 49 W/m2
07:19 6.1 °C 5 °C 1017.0 hPa North 13 km/h 13 km/h 92.7% 0.4 mm 56 W/m2
07:24 6.1 °C 5 °C 1017.0 hPa North 13 km/h 13 km/h 93% 0.6 mm 63 W/m2
07:29 6 °C 4.9 °C 1017.0 hPa North 13 km/h 13 km/h 92.8% 0.6 mm 65 W/m2
07:34 6.1 °C 5 °C 1016.9 hPa North 11.5 km/h 13 km/h 93% 0.6 mm 69 W/m2
07:39 6 °C 5 °C 1016.8 hPa North 9.3 km/h 12.9 km/h 92.9% 0.6 mm 65 W/m2
07:44 6 °C 4.7 °C 1016.7 hPa North 9.3 km/h 9.7 km/h 92% 0.4 mm 74 W/m2
07:49 5.9 °C 4.8 °C 1016.6 hPa North 9.3 km/h 9.7 km/h 92.4% 0.6 mm 91 W/m2
07:54 5.9 °C 4.9 °C 1016.7 hPa North 9.3 km/h 9.7 km/h 93% 0.6 mm 91 W/m2
07:59 5.9 °C 4.9 °C 1016.6 hPa North 9.3 km/h 9.7 km/h 93% 0.6 mm 88 W/m2
08:04 6 °C 4.9 °C 1016.5 hPa North 10.7 km/h 11.1 km/h 93% 0.6 mm 98 W/m2
08:09 6 °C 5 °C 1016.5 hPa North 11.1 km/h 11.3 km/h 93% 0.4 mm 98 W/m2
08:14 6 °C 4.8 °C 1016.5 hPa North 11.1 km/h 11.3 km/h 92.4% 0.4 mm 83 W/m2
08:19 5.9 °C 4.6 °C 1016.5 hPa North 11.1 km/h 11.3 km/h 92% 0.4 mm 79 W/m2
08:24 5.8 °C 4.7 °C 1016.4 hPa North 11.1 km/h 11.3 km/h 92.7% 0.2 mm 86 W/m2
08:29 5.8 °C 4.7 °C 1016.6 hPa North 11.1 km/h 11.3 km/h 92.6% 0.2 mm 47 W/m2
08:34 5.7 °C 4.5 °C 1016.6 hPa North 11.1 km/h 11.3 km/h 92% 0.2 mm 47 W/m2
08:39 5.6 °C 4.4 °C 1016.5 hPa North 11.1 km/h 11.3 km/h 92% 0.2 mm 54 W/m2
08:44 5.6 °C 4.4 °C 1016.5 hPa North 11.1 km/h 11.3 km/h 92% 0.2 mm 35 W/m2
08:49 5.7 °C 4.4 °C 1016.5 hPa North 11.1 km/h 11.3 km/h 92% 0.2 mm 49 W/m2
08:54 5.6 °C 4.4 °C 1016.6 hPa North 11.1 km/h 11.3 km/h 92% 0.2 mm 62 W/m2
08:59 5.6 °C 4.3 °C 1016.5 hPa North 11.1 km/h 11.3 km/h 92% 0.2 mm 62 W/m2
09:04 5.5 °C 4.3 °C 1016.5 hPa North 11.1 km/h 11.3 km/h 92% 0.2 mm 91 W/m2
09:09 5.4 °C 4.2 °C 1016.5 hPa North 11.1 km/h 11.3 km/h 92% 0.2 mm 91 W/m2
09:14 5.3 °C 4.1 °C 1016.5 hPa North 11.1 km/h 11.3 km/h 92% 0.4 mm 60 W/m2
09:19 5.3 °C 4.1 °C 1016.6 hPa North 11.1 km/h 11.3 km/h 92% 0.4 mm 81 W/m2
09:24 5.2 °C 4 °C 1016.5 hPa North 11.1 km/h 11.3 km/h 92% 0.4 mm 90 W/m2
09:29 5.2 °C 4.1 °C 1016.5 hPa North 11.1 km/h 11.3 km/h 92.3% 0.4 mm 90 W/m2
09:34 5.1 °C 4 °C 1016.5 hPa NNW 12.6 km/h 13 km/h 92.4% 0.6 mm 72 W/m2
09:39 5.1 °C 4 °C 1016.4 hPa NNW 13 km/h 13 km/h 92.7% 0.6 mm 76 W/m2
09:44 5 °C 4 °C 1016.4 hPa NNW 13 km/h 13 km/h 93% 0.6 mm 100 W/m2
09:49 5 °C 4 °C 1016.3 hPa NNW 13 km/h 13 km/h 93% 0.8 mm 105 W/m2
09:54 5.1 °C 4 °C 1016.3 hPa NNW 13 km/h 13 km/h 93% 0.6 mm 88 W/m2
09:59 5 °C 4 °C 1016.3 hPa NNW 13 km/h 13 km/h 93% 0.8 mm 104 W/m2
10:04 5 °C 3.9 °C 1016.1 hPa NNW 13 km/h 13 km/h 92.8% 1.0 mm 116 W/m2
10:09 5 °C 3.9 °C 1016.1 hPa NNW 13 km/h 13 km/h 93% 1.0 mm 93 W/m2
10:14 5 °C 4 °C 1016.1 hPa NNW 13 km/h 13 km/h 93% 1.2 mm 109 W/m2
10:19 5 °C 3.9 °C 1016.0 hPa NNW 13 km/h 13 km/h 93% 1.0 mm 130 W/m2
10:24 4.9 °C 3.9 °C 1016.0 hPa NNW 13 km/h 13 km/h 93% 1.2 mm 125 W/m2
10:29 4.9 °C 3.8 °C 1016.0 hPa NNW 13 km/h 13 km/h 93% 1.2 mm 130 W/m2
10:34 4.8 °C 3.8 °C 1016.0 hPa NNW 13 km/h 13 km/h 93% 1.0 mm 137 W/m2
10:39 4.9 °C 3.8 °C 1016.0 hPa NNW 13 km/h 13 km/h 93% 1.0 mm 137 W/m2
10:44 4.9 °C 3.9 °C 1015.9 hPa NNW 13 km/h 13 km/h 93% 1.2 mm 125 W/m2
10:49 5 °C 3.9 °C 1015.9 hPa NNW 13 km/h 13 km/h 93% 1.2 mm 86 W/m2
10:54 5 °C 3.9 °C 1015.9 hPa NNW 13 km/h 13 km/h 93% 1.0 mm 114 W/m2
10:59 4.9 °C 3.9 °C 1015.8 hPa NNW 13 km/h 13 km/h 93% 0.8 mm 132 W/m2
11:04 4.9 °C 3.9 °C 1015.8 hPa NNW 15.9 km/h 16.7 km/h 93% 0.8 mm 137 W/m2
11:09 5 °C 3.9 °C 1015.8 hPa NNW 16.7 km/h 16.7 km/h 93% 0.6 mm 153 W/m2
11:14 5 °C 4 °C 1015.7 hPa NNW 16.7 km/h 16.7 km/h 93% 0.6 mm 357 W/m2
11:19 5.3 °C 4.3 °C 1015.6 hPa NNW 16.7 km/h 16.7 km/h 93% 0.6 mm 334 W/m2
11:24 5.7 °C 4.8 °C 1015.5 hPa NNW 16.7 km/h 16.7 km/h 93.8% 0.6 mm 332 W/m2
11:29 5.8 °C 4.8 °C 1015.4 hPa NNW 16.7 km/h 16.7 km/h 93% 0.4 mm 334 W/m2
11:34 6 °C 4.9 °C 1015.4 hPa NNW 15.3 km/h 16.7 km/h 93% 0.4 mm 304 W/m2
11:39 6 °C 5 °C 1015.4 hPa NNW 13 km/h 16.1 km/h 93% 0.4 mm 262 W/m2
11:44 6.1 °C 5 °C 1015.4 hPa NNW 13 km/h 13 km/h 93% 0.4 mm 239 W/m2
11:49 6.2 °C 5.1 °C 1015.3 hPa NNW 13 km/h 13 km/h 93% 0.2 mm 487 W/m2
11:54 6.5 °C 5.5 °C 1015.3 hPa NNW 13 km/h 13 km/h 93.2% 0.2 mm 624 W/m2
11:59 6.9 °C 6 °C 1015.2 hPa NNW 13 km/h 13 km/h 93.5% 0.2 mm 399 W/m2
12:04 7 °C 5.9 °C 1015.1 hPa North 15.9 km/h 16.7 km/h 93% 0.2 mm 584 W/m2
12:09 7 °C 5.8 °C 1015.0 hPa North 16.7 km/h 16.7 km/h 92% 0.2 mm 708 W/m2
12:14 7.4 °C 6.3 °C 1014.9 hPa North 16.7 km/h 16.7 km/h 92.8% 0.2 mm 742 W/m2
12:19 8 °C 6.8 °C 1014.8 hPa North 16.7 km/h 16.7 km/h 92.4% 0.0 mm 780 W/m2
12:24 8.2 °C 6.8 °C 1014.8 hPa North 16.7 km/h 16.7 km/h 91% 0.0 mm 770 W/m2
12:29 8.2 °C 6.6 °C 1014.7 hPa North 16.7 km/h 16.7 km/h 89.7% 0.0 mm 461 W/m2
12:34 8.4 °C 6.7 °C 1014.6 hPa North 16.7 km/h 16.7 km/h 89.2% 0.0 mm 707 W/m2
12:39 8.5 °C 6.5 °C 1014.5 hPa North 16.7 km/h 16.7 km/h 86.9% 0.0 mm 798 W/m2
12:44 8.9 °C 6.9 °C 1014.5 hPa North 16.7 km/h 16.7 km/h 87.3% 0.0 mm 954 W/m2
12:49 9.3 °C 6.9 °C 1014.5 hPa North 16.7 km/h 16.7 km/h 84.9% 0.0 mm 703 W/m2
12:54 9.5 °C 7 °C 1014.4 hPa North 16.7 km/h 16.7 km/h 84.4% 0.0 mm 944 W/m2
12:59 9.9 °C 7.1 °C 1014.4 hPa North 16.7 km/h 16.7 km/h 83.3% 0.0 mm 884 W/m2
13:04 9.9 °C 6.8 °C 1014.4 hPa North 13.7 km/h 16.7 km/h 80.9% 0.0 mm 884 W/m2
13:09 10.3 °C 7.3 °C 1014.3 hPa North 9.3 km/h 16.1 km/h 81.5% 0.0 mm 831 W/m2
13:14 10.4 °C 7 °C 1014.3 hPa North 9.3 km/h 9.7 km/h 79.7% 0.0 mm 668 W/m2
13:19 10.2 °C 6.5 °C 1014.3 hPa North 9.3 km/h 9.7 km/h 77.9% 0.0 mm 464 W/m2
13:24 10 °C 6.6 °C 1014.2 hPa North 9.3 km/h 9.7 km/h 79.1% 0.0 mm 870 W/m2
13:29 10.3 °C 6.8 °C 1014.2 hPa North 9.3 km/h 9.7 km/h 79% 0.0 mm 814 W/m2
13:34 10.2 °C 6.6 °C 1014.1 hPa NE 10.7 km/h 11.1 km/h 77.9% 0.0 mm 768 W/m2
13:39 10.3 °C 6.7 °C 1014.0 hPa NE 11.1 km/h 11.3 km/h 78.3% 0.0 mm 761 W/m2
13:44 10.4 °C 6.6 °C 1013.9 hPa NE 11.1 km/h 11.3 km/h 77.2% 0.0 mm 759 W/m2
13:49 10.1 °C 5.8 °C 1013.8 hPa NE 11.1 km/h 11.3 km/h 74.7% 0.0 mm 756 W/m2
13:54 10.1 °C 6.3 °C 1013.7 hPa NE 11.1 km/h 11.3 km/h 77.4% 0.0 mm 754 W/m2
13:59 10.5 °C 6.7 °C 1013.6 hPa NE 11.1 km/h 11.3 km/h 77.5% 0.0 mm 754 W/m2
14:04 10.6 °C 6.5 °C 1013.5 hPa NNE 10.4 km/h 11.3 km/h 76% 0.0 mm 756 W/m2
14:09 10.4 °C 6 °C 1013.4 hPa North 9.3 km/h 11.3 km/h 74% 0.0 mm 756 W/m2
14:14 10.5 °C 6.2 °C 1013.3 hPa North 9.3 km/h 9.7 km/h 74.9% 0.0 mm 763 W/m2
14:19 10.8 °C 6.6 °C 1013.2 hPa North 9.3 km/h 9.7 km/h 75.3% 0.0 mm 770 W/m2
14:24 11.1 °C 6.7 °C 1013.2 hPa North 9.3 km/h 9.7 km/h 73.9% 0.0 mm 786 W/m2
14:29 11.3 °C 6.5 °C 1013.0 hPa North 9.3 km/h 9.7 km/h 72.6% 0.0 mm 770 W/m2
14:34 11.4 °C 6.8 °C 1012.9 hPa North 7.9 km/h 9.7 km/h 73.5% 0.0 mm 766 W/m2
14:39 11.4 °C 6.3 °C 1012.8 hPa North 5.6 km/h 9.7 km/h 70.7% 0.0 mm 765 W/m2
14:44 11.3 °C 6.3 °C 1012.8 hPa North 5.6 km/h 5.6 km/h 71.3% 0.0 mm 747 W/m2
14:49 11.5 °C 6.4 °C 1012.6 hPa North 5.6 km/h 5.6 km/h 71% 0.0 mm 729 W/m2
14:54 11.7 °C 6.5 °C 1012.6 hPa North 5.6 km/h 5.6 km/h 70.2% 0.0 mm 717 W/m2
14:59 12.1 °C 6.8 °C 1012.5 hPa North 5.6 km/h 5.6 km/h 70.3% 0.0 mm 721 W/m2
15:04 12.3 °C 6.8 °C 1012.4 hPa North 5.6 km/h 5.6 km/h 69.1% 0.0 mm 719 W/m2
15:09 12.3 °C 6.4 °C 1012.4 hPa North 5.6 km/h 5.6 km/h 67.5% 0.0 mm 700 W/m2
15:14 12.2 °C 6.4 °C 1012.4 hPa NNW 5.6 km/h 5.6 km/h 67.8% 0.0 mm 684 W/m2
15:19 12.4 °C 6.3 °C 1012.4 hPa North 5.6 km/h 5.6 km/h 66.5% 0.0 mm 680 W/m2
15:24 12.5 °C 6.4 °C 1012.3 hPa North 5.6 km/h 5.6 km/h 66.5% 0.0 mm 671 W/m2
15:29 12.4 °C 5.8 °C 1012.2 hPa North 5.6 km/h 5.6 km/h 63.8% 0.0 mm 661 W/m2
15:34 11.9 °C 5.4 °C 1012.1 hPa East 8.5 km/h 9.3 km/h 64.3% 0.0 mm 670 W/m2
15:39 11.8 °C 5.1 °C 1012.1 hPa SE 9.3 km/h 9.7 km/h 63.9% 0.0 mm 649 W/m2
15:44 11.5 °C 4.9 °C 1012.0 hPa SE 9.3 km/h 9.7 km/h 63.8% 0.0 mm 649 W/m2
15:49 11.6 °C 5.1 °C 1011.9 hPa SE 9.3 km/h 9.7 km/h 64.5% 0.0 mm 666 W/m2
15:54 11.8 °C 5 °C 1011.8 hPa SE 9.3 km/h 9.7 km/h 63.3% 0.0 mm 526 W/m2
15:59 11.6 °C 4.8 °C 1011.6 hPa SE 9.3 km/h 9.7 km/h 63.3% 0.0 mm 526 W/m2
16:04 11.3 °C 4.6 °C 1011.6 hPa SSW 12.2 km/h 13 km/h 63.3% 0.0 mm 615 W/m2
16:09 11.5 °C 5.1 °C 1011.5 hPa SSW 13 km/h 13 km/h 64.6% 0.0 mm 605 W/m2
16:14 12 °C 5.1 °C 1011.5 hPa SSW 13 km/h 13 km/h 62.9% 0.0 mm 606 W/m2
16:19 12.2 °C 4.6 °C 1011.4 hPa SSW 13 km/h 13 km/h 59.9% 0.0 mm 622 W/m2
16:24 12.3 °C 4.7 °C 1011.4 hPa SSW 13 km/h 13 km/h 59.7% 0.0 mm 631 W/m2
16:29 12.1 °C 4.4 °C 1011.4 hPa SSW 13 km/h 13 km/h 59.3% 0.0 mm 622 W/m2
16:34 11.7 °C 4.4 °C 1011.4 hPa SSW 13 km/h 13 km/h 61.1% 0.0 mm 603 W/m2
16:39 11.4 °C 4.5 °C 1011.3 hPa SSW 13 km/h 13 km/h 62.6% 0.0 mm 598 W/m2
16:44 11.3 °C 4.5 °C 1011.2 hPa SSW 13 km/h 13 km/h 63.2% 0.0 mm 640 W/m2
16:49 11.2 °C 4.7 °C 1011.2 hPa SSW 13 km/h 13 km/h 64.3% 0.0 mm 682 W/m2
16:54 11.2 °C 4.5 °C 1011.2 hPa SSW 13 km/h 13 km/h 63.5% 0.0 mm 596 W/m2
16:59 11 °C 4.2 °C 1011.1 hPa SSW 13 km/h 13 km/h 62.7% 0.0 mm 422 W/m2
17:04 10.9 °C 4.2 °C 1011.0 hPa WSW 11.5 km/h 13 km/h 63.5% 0.0 mm 469 W/m2
17:09 10.7 °C 4.1 °C 1011.0 hPa West 9.3 km/h 12.9 km/h 63.8% 0.0 mm 608 W/m2
17:14 10.7 °C 4.4 °C 1011.0 hPa West 9.3 km/h 9.7 km/h 65.1% 0.0 mm 594 W/m2
17:19 11 °C 4.4 °C 1011.0 hPa West 9.3 km/h 9.7 km/h 63.7% 0.0 mm 550 W/m2
17:24 10.7 °C 4.3 °C 1011.0 hPa West 9.3 km/h 9.7 km/h 64.7% 0.0 mm 165 W/m2
17:29 10.3 °C 4.4 °C 1010.9 hPa West 9.3 km/h 9.7 km/h 66.8% 0.0 mm 476 W/m2
17:34 10.4 °C 5.2 °C 1010.9 hPa SW 13.5 km/h 14.8 km/h 70% 0.0 mm 469 W/m2
17:39 10.6 °C 5.3 °C 1010.8 hPa SSW 14.8 km/h 14.8 km/h 69.6% 0.0 mm 466 W/m2
17:44 10.5 °C 5.1 °C 1010.7 hPa SSW 14.8 km/h 14.8 km/h 69.3% 0.0 mm 478 W/m2
17:49 10.2 °C 5.3 °C 1010.7 hPa SSW 14.8 km/h 14.8 km/h 71.5% 0.0 mm 139 W/m2
17:54 9.9 °C 5.5 °C 1010.5 hPa SSW 14.8 km/h 14.8 km/h 74.3% 0.0 mm 135 W/m2
17:59 9.6 °C 5.7 °C 1010.5 hPa SSW 14.8 km/h 14.8 km/h 76.6% 0.0 mm 105 W/m2
18:04 9.5 °C 5.7 °C 1010.5 hPa SW 19.2 km/h 20.4 km/h 77.5% 0.0 mm 155 W/m2
18:09 9.5 °C 5.5 °C 1010.4 hPa SW 20.4 km/h 20.9 km/h 76.1% 0.0 mm 134 W/m2
18:14 9.5 °C 5.3 °C 1010.4 hPa SW 20.4 km/h 20.9 km/h 75% 0.0 mm 149 W/m2
18:19 9.6 °C 5.4 °C 1010.3 hPa SW 20.4 km/h 20.9 km/h 75% 0.0 mm 195 W/m2
18:24 9.8 °C 5.4 °C 1010.3 hPa SW 20.4 km/h 20.9 km/h 74.1% 0.0 mm 380 W/m2
18:29 9.9 °C 5.3 °C 1010.2 hPa SW 20.4 km/h 20.9 km/h 73% 0.0 mm 443 W/m2
18:34 10.3 °C 5.6 °C 1010.1 hPa SSW 21.8 km/h 22.2 km/h 73% 0.0 mm 387 W/m2
18:39 10.5 °C 5.7 °C 1010.1 hPa SSW 22.2 km/h 22.5 km/h 72.5% 0.0 mm 385 W/m2
18:44 10.5 °C 5.9 °C 1010.1 hPa SSW 22.2 km/h 22.5 km/h 73% 0.0 mm 336 W/m2
18:49 10.4 °C 5.7 °C 1010.0 hPa SSW 22.2 km/h 22.5 km/h 72.7% 0.0 mm 227 W/m2
18:54 10.3 °C 5.6 °C 1009.9 hPa SSW 22.2 km/h 22.5 km/h 73% 0.0 mm 211 W/m2
18:59 10.2 °C 5.6 °C 1009.8 hPa SSW 22.2 km/h 22.5 km/h 73.3% 0.0 mm 162 W/m2
19:04 10.1 °C 5.6 °C 1009.7 hPa SSW 20.7 km/h 22.5 km/h 74% 0.0 mm 202 W/m2
19:09 10.1 °C 5.8 °C 1009.6 hPa SSW 18.5 km/h 22.5 km/h 74.7% 0.0 mm 234 W/m2
19:14 10.1 °C 5.8 °C 1009.5 hPa SSW 18.5 km/h 19.3 km/h 74.6% 0.0 mm 69 W/m2
19:19 9.9 °C 5.6 °C 1009.5 hPa SSW 18.5 km/h 19.3 km/h 74.5% 0.0 mm 65 W/m2
19:24 9.7 °C 5.4 °C 1009.4 hPa SSW 18.5 km/h 19.3 km/h 75% 0.0 mm 63 W/m2
19:29 9.5 °C 5.5 °C 1009.2 hPa SSW 18.5 km/h 19.3 km/h 75.8% 0.0 mm 60 W/m2
19:34 9.5 °C 5.5 °C 1009.2 hPa SSW 20 km/h 20.4 km/h 76% 0.0 mm 56 W/m2
19:39 9.4 °C 5.3 °C 1009.2 hPa SSW 20.4 km/h 20.9 km/h 75.1% 0.0 mm 44 W/m2
19:44 9.4 °C 5.4 °C 1009.1 hPa SSW 20.4 km/h 20.9 km/h 76% 0.0 mm 37 W/m2
19:49 9.3 °C 5.2 °C 1009.1 hPa SSW 20.4 km/h 20.9 km/h 75.5% 0.0 mm 37 W/m2
19:54 9.3 °C 5 °C 1009.1 hPa SSW 20.4 km/h 20.9 km/h 75% 0.0 mm 37 W/m2
19:59 9.2 °C 4.9 °C 1009.1 hPa SSW 20.4 km/h 20.9 km/h 74.2% 0.0 mm 35 W/m2
20:04 9.2 °C 4.8 °C 1009.1 hPa SSW 21.8 km/h 22.2 km/h 74% 0.0 mm 30 W/m2
20:09 9.2 °C 4.8 °C 1009.0 hPa SSW 22.2 km/h 22.5 km/h 74.2% 0.0 mm 25 W/m2
20:14 9.2 °C 4.8 °C 1008.9 hPa SSW 22.2 km/h 22.5 km/h 74% 0.0 mm 23 W/m2
Refsnesbakken, Moss, Norway
Compliments of Weather Underground - 2 mb